#timestamp,LO_Frequency,Hit,StdDev 
1510228815.6,286046999.3,N
1510228835.4,286047001.1,N
1510228855.3,286046999.8,N
1510228875.1,286046998.4,N
1510228895.8,286046996.6,N
1510228915.7,286047002.6,N
1510228935.5,286047003.7,N
1510228955.3,286047004.2,N
1510228975.2,286047003.1,N
1510228995.9,286047002.1,N
1510229015.7,286046999.9,N
1510229035.6,286047002.0,N
1510229055.4,286047003.9,N
1510229075.2,286047003.2,N
1510229095.0,286047005.5,N
1510229095.9,286047005.5,N
1510229115.8,286047003.2,N
1510229135.6,286047003.0,N
1510229155.4,286047002.5,N
1510229175.3,286047000.8,N
1510229195.1,286046998.9,N
1510229215.8,286046999.0,N
1510229235.7,286047000.5,N
1510229255.5,286047000.5,N
1510229275.3,286047000.6,N
1510229295.2,286047004.1,N
1510229315.9,286047001.7,N
1510229335.7,286047004.1,N
1510229355.6,286047002.0,N
1510229375.4,286047001.1,N
1510229395.2,286047000.3,N
1510229415.0,286047004.5,N
1510229416.0,286047004.5,N
1510229435.8,286047004.8,N
1510229455.6,286047005.2,N
1510229475.4,286047001.5,N
1510229495.3,286047004.2,N
1510229515.1,286047004.3,N
1510229535.8,286047002.4,N
1510229555.7,286047002.8,N
1510229575.5,286047005.4,N
1510229595.3,286047004.4,N
1510229615.2,286047000.5,N
1510229635.9,286047004.4,N
1510229655.7,286047002.8,N
1510229675.6,286047002.6,N
1510229695.4,286047004.2,N
1510229715.2,286047000.3,N
1510229735.1,286047000.0,N
1510229736.0,286047000.0,N
1510229755.8,286046996.8,N
1510229775.6,286046999.6,N
1510229795.5,286046999.6,N
1510229815.3,286046999.7,N
1510229835.1,286046998.7,N
1510229855.8,286046999.8,N
1510229875.7,286046999.0,N
1510229895.5,286047000.5,N
1510229915.3,286046998.2,N
1510229935.2,286046997.4,N
1510229955.0,286046998.0,N
1510229955.9,286046998.0,N
1510229975.7,286046992.5,N
1510229995.6,286046991.9,N
1510230015.4,286046994.6,N
1510230035.2,286046996.0,N
1510230055.1,286046997.6,N
1510230056.0,286046997.6,N
1510230075.8,286046993.4,N
1510230095.6,286046992.2,N
1510230115.5,286046995.9,N
1510230135.3,286046996.2,N
1510230155.1,286046994.0,N
1510230175.9,286046994.6,N
1510230195.7,286046990.1,Y
1510230215.5,286046993.7,P
1510230235.4,286046993.8,P
1510230255.2,286046993.7,P
1510230275.0,286046997.7,N
1510230275.9,286046997.7,N
1510230295.8,286046996.7,N
1510230315.6,286046996.8,N
1510230335.4,286046997.0,N
1510230355.2,286046997.3,N
1510230375.1,286046997.3,N
1510230376.0,286046997.3,N
1510230395.8,286046999.5,N
1510230415.6,286046995.4,N
1510230435.5,286046996.2,N
1510230455.3,286046997.9,N
1510230475.1,286046997.5,N
1510230495.9,286046999.4,N
1510230515.7,286046998.4,N
1510230535.5,286046995.6,N
1510230555.4,286046999.1,N
1510230575.2,286046997.6,N
1510230595.0,286046996.9,N
1510230595.9,286046996.9,N
1510230615.8,286047001.1,N
1510230635.6,286046995.7,N
1510230655.4,286046997.1,N
1510230675.2,286047000.8,N
1510230695.1,286046999.9,N
1510230696.0,286046999.9,N
1510230715.8,286046999.4,N
1510230735.6,286046998.8,N
1510230755.5,286047002.2,N
1510230775.3,286046999.8,N
1510230795.1,286047004.0,N
1510230815.9,286047000.4,N
1510230835.7,286046999.4,N
1510230855.5,286047003.0,N
1510230875.4,286047004.1,N
1510230895.2,286047005.8,N
1510230915.0,286047004.3,N
1510230915.9,286047004.3,N
1510230935.8,286047005.4,N
1510230955.6,286047009.0,N
1510230975.4,286047010.4,Y
1510230995.3,286047009.9,P
1510231015.1,286047010.8,N
1510231016.0,286047010.8,N
1510231035.8,286047005.4,N
1510231055.6,286047005.3,N
1510231075.5,286047004.8,N
1510231095.3,286047004.3,N
1510231115.1,286047002.2,N
1510231135.9,286047003.3,N
1510231155.7,286047004.0,N
1510231175.5,286047005.4,N
1510231195.4,286047005.5,N
1510231215.2,286047001.3,N
1510231235.0,286047005.9,N
1510231235.9,286047005.9,N
1510231255.8,286047001.3,N
1510231275.6,286047003.4,N
1510231295.4,286047006.0,N
1510231315.3,286047004.8,N
1510231335.1,286047002.6,N
1510231336.0,286047002.6,N
1510231355.8,286047000.0,N
1510231375.7,286047005.4,N
1510231395.5,286047003.0,N
1510231415.3,286047001.7,N
1510231435.1,286047005.8,N
1510231455.9,286047001.9,N
1510231475.7,286047001.4,N
1510231495.5,286047005.2,N
1510231515.4,286047005.5,N
1510231535.2,286047000.5,N
1510231555.0,286046998.6,N
1510231555.9,286046998.6,N
1510231575.8,286046998.0,N
1510231595.6,286046998.8,N
1510231615.4,286046999.5,N
1510231635.3,286046998.7,N
1510231655.1,286047001.1,N
1510231656.0,286047001.1,N
1510231675.8,286046994.9,N
1510231695.7,286046997.6,N
1510231715.5,286046995.0,N
1510231735.3,286046996.3,N
1510231755.1,286046996.8,N
1510231775.9,286046997.0,N
1510231795.7,286046995.6,N
1510231815.5,286046996.2,N
1510231835.4,286046995.3,N
1510231855.2,286046995.3,N
1510231875.0,286046993.6,N
1510231875.9,286046993.6,N
1510231895.8,286046996.1,N
1510231915.6,286046993.6,N
1510231935.4,286046997.5,N
1510231955.3,286046995.0,N
1510231975.1,286046994.2,N
1510231976.0,286046994.2,N
1510231995.8,286046996.0,N
1510232015.7,286047002.7,N
1510232035.5,286047001.7,N
1510232055.3,286047004.3,N
1510232075.2,286047000.7,N
1510232095.9,286047002.3,N
1510232115.7,286047002.4,N
1510232135.6,286046997.4,N
1510232155.4,286046997.9,N
1510232175.2,286046994.9,N
1510232195.0,286046995.6,N
1510232195.9,286046995.6,N
1510232215.8,286046997.8,N
1510232235.6,286046995.7,N
1510232255.4,286046990.1,Y
1510232275.3,286046996.2,P
1510232295.1,286046996.4,P
1510232315.8,286046996.0,P
1510232335.7,286046996.4,Y
1510232355.5,286047000.3,P
1510232375.3,286047000.4,N
1510232395.2,286046999.9,N
